Glencoe, MN

4:28 AM CST on December 09, 2019 (GMT -0600)
Glencoe Municipal

Weather History for KGYL - October, 2019

Change the Weather History Date:

Sunday, October 13, 2019

  Actual Average (WUND) Record (WUND)
Temperature  
Mean Temperature 38 °F -  
Max Temperature 42 °F - - (-1)
Min Temperature 34 °F - - (-1)
Degree Days  
Heating Degree Days 27    
Moisture  
Dew Point 33 °F    
Average Humidity 85    
Maximum Humidity 100    
Minimum Humidity 64    
Precipitation  
Precipitation 0.00 in - - ()
Sea Level Pressure  
Sea Level Pressure 29.78 in    
Wind  
Wind Speed 10 mph (West)    
Max Wind Speed 16 mph    
Max Gust Speed 23 mph    
Visibility 10 miles    
Events Rain , Snow    
Averages and records for this station are not official NWS values.
T = Trace of Precipitation, MM = Missing Value Source: NWS Daily Summary

Daily Weather History Graph

Daily Weather History Graph

Search for Another Location

Airport or City:

Astronomy

Oct. 13, 2019 Rise Set
Actual Time 7:28 AM CDT 6:35 PM CDT
Civil Twilight 6:59 AM CDT 7:04 PM CDT
Nautical Twilight 6:25 AM CDT 7:38 PM CDT
Astronomical Twilight 5:51 AM CDT 8:12 PM CDT
Moon 7:00 PM CDT (10/13) 7:00 AM CDT (10/13)
Length of Visible Light 12h 05m
Length of Day
11h 06m
Full, 100% of the Moon is Illuminated
Oct 13
Full
Oct 13
Full
Oct 21
Last Quarter
Oct 27
New
Nov 4
First Quarter

Hourly Weather History & Observations

Time (CDT) Temp. Windchill Dew Point Humidity Pressure Visibility Wind Dir Wind Speed Gust Speed Precip Events Conditions
12:17 AM 35.8 °F 27.3 °F 31.6 °F 85% 29.66 in 10.0 mi WSW 12.7 mph 18.4 mph N/A   Overcast
12:35 AM 35.6 °F 28.0 °F 31.8 °F 86% 29.66 in 10.0 mi SW 10.4 mph - N/A   Overcast
12:55 AM 35.1 °F 28.6 °F 32.0 °F 89% 29.66 in 7.0 mi WSW 8.1 mph 17.3 mph N/A   Overcast
12:59 AM 35.1 °F 28.6 °F 32.0 °F 89% 29.66 in 7.0 mi WSW 8.1 mph 16.1 mph N/A   Overcast
1:18 AM 35.4 °F 27.8 °F 32.0 °F 87% 29.67 in 10.0 mi WSW 10.4 mph - N/A   Overcast
1:36 AM 35.1 °F 27.9 °F 32.7 °F 91% 29.67 in 10.0 mi WSW 9.2 mph - N/A   Overcast
1:55 AM 34.9 °F 27.1 °F 33.1 °F 93% 29.67 in 10.0 mi WSW 10.4 mph - N/A   Overcast
1:56 AM 34.9 °F 28.3 °F 33.1 °F 93% 29.67 in 10.0 mi WSW 8.1 mph - N/A   Overcast
2:15 AM 34.7 °F 28.1 °F 34.3 °F 99% 29.67 in 7.0 mi WSW 8.1 mph - N/A   Overcast
2:20 AM 34.7 °F 28.1 °F 34.9 °F 100% 29.68 in 7.0 mi WSW 8.1 mph - N/A   Overcast
2:36 AM 34.9 °F 27.7 °F 35.1 °F 100% 29.68 in 5.0 mi WSW 9.2 mph 16.1 mph N/A   Overcast
2:55 AM 34.9 °F 29.0 °F 35.1 °F 100% 29.68 in 10.0 mi WSW 6.9 mph 16.1 mph N/A   Overcast
2:56 AM 34.9 °F 29.0 °F 35.1 °F 100% 29.68 in 10.0 mi WSW 6.9 mph - N/A   Overcast
3:15 AM 34.9 °F 27.1 °F 35.1 °F 100% 29.68 in 10.0 mi WSW 10.4 mph - N/A   Light Drizzle
3:20 AM 34.9 °F 29.0 °F 35.1 °F 100% 29.68 in 7.0 mi WSW 6.9 mph - N/A   Light Drizzle
3:37 AM 35.1 °F 28.6 °F 35.2 °F 100% 29.68 in 10.0 mi WSW 8.1 mph - N/A   Overcast
3:55 AM 35.1 °F 27.9 °F 35.2 °F 100% 29.69 in 10.0 mi WSW 9.2 mph - N/A   Overcast
3:56 AM 35.2 °F 28.1 °F 35.4 °F 100% 29.69 in 10.0 mi WSW 9.2 mph - N/A   Overcast
4:19 AM 35.2 °F 29.5 °F 35.6 °F 100% 29.69 in 10.0 mi WSW 6.9 mph 20.7 mph N/A   Overcast
4:37 AM 35.2 °F 28.8 °F 35.6 °F 100% 29.69 in 10.0 mi WSW 8.1 mph - N/A   Overcast
4:55 AM 35.6 °F 28.6 °F 35.6 °F 100% 29.69 in 10.0 mi West 9.2 mph - N/A   Overcast
4:56 AM 35.6 °F 28.6 °F 35.6 °F 100% 29.69 in 10.0 mi WSW 9.2 mph - N/A   Overcast
5:15 AM 35.6 °F 28.6 °F 35.6 °F 100% 29.69 in 10.0 mi West 9.2 mph 16.1 mph N/A   Overcast
5:38 AM 35.8 °F 29.4 °F 35.6 °F 99% 29.69 in 10.0 mi West 8.1 mph 17.3 mph N/A   Overcast
5:55 AM 35.6 °F 29.2 °F 35.1 °F 98% 29.70 in 10.0 mi West 8.1 mph 16.1 mph N/A   Overcast
6:15 AM 35.6 °F 28.6 °F 34.9 °F 97% 29.70 in 10.0 mi West 9.2 mph 17.3 mph N/A   Overcast
6:16 AM 35.6 °F 28.0 °F 34.9 °F 97% 29.70 in 10.0 mi West 10.4 mph 17.3 mph N/A   Overcast
6:38 AM 35.6 °F 29.9 °F 34.9 °F 97% 29.71 in 10.0 mi West 6.9 mph 17.3 mph N/A Snow Light Snow
6:56 AM 35.6 °F 27.1 °F 34.3 °F 95% 29.71 in 10.0 mi West 12.7 mph 17.3 mph N/A   Overcast
7:15 AM 35.6 °F 27.5 °F 33.6 °F 92% 29.72 in 10.0 mi West 11.5 mph 16.1 mph N/A   Overcast
7:35 AM 35.6 °F 26.6 °F 32.9 °F 90% 29.72 in 10.0 mi West 13.8 mph 20.7 mph N/A   Overcast
7:58 AM 35.8 °F 30.1 °F 32.9 °F 89% 29.72 in 10.0 mi West 6.9 mph 17.3 mph N/A   Overcast
8:35 AM 36.1 °F 29.3 °F 32.7 °F 87% 29.73 in 10.0 mi West 9.2 mph 18.4 mph N/A   Overcast
8:36 AM 36.1 °F 29.9 °F 32.7 °F 87% 29.73 in 10.0 mi West 8.1 mph 16.1 mph N/A   Overcast
8:55 AM 36.5 °F 28.7 °F 32.7 °F 86% 29.73 in 10.0 mi West 11.5 mph 17.3 mph N/A   Overcast
8:59 AM 36.5 °F 29.7 °F 32.9 °F 87% 29.73 in 10.0 mi West 9.2 mph 17.3 mph N/A   Overcast
9:17 AM 36.9 °F 30.1 °F 32.9 °F 86% 29.73 in 10.0 mi West 9.2 mph 20.7 mph N/A   Overcast
9:35 AM 36.7 °F 28.9 °F 32.7 °F 86% 29.74 in 10.0 mi West 11.5 mph 21.9 mph N/A Snow Light Snow
9:55 AM 37.4 °F 28.5 °F 32.4 °F 82% 29.75 in 10.0 mi West 15.0 mph 19.6 mph N/A   Overcast
10:00 AM 37.4 °F 28.9 °F 32.5 °F 83% 29.75 in 10.0 mi West 13.8 mph 23.0 mph N/A   Overcast
10:17 AM 37.8 °F 28.6 °F 32.5 °F 81% 29.76 in 10.0 mi West 16.1 mph 20.7 mph N/A   Overcast
10:35 AM 37.9 °F 29.6 °F 32.0 °F 79% 29.76 in 10.0 mi West 13.8 mph 20.7 mph N/A   Overcast
10:36 AM 37.9 °F 30.0 °F 32.0 °F 79% 29.77 in 10.0 mi West 12.7 mph 20.7 mph N/A   Overcast
10:55 AM 38.3 °F 30.5 °F 32.2 °F 79% 29.77 in 10.0 mi West 12.7 mph 19.6 mph N/A   Overcast
11:00 AM 38.5 °F 31.1 °F 32.2 °F 78% 29.77 in 10.0 mi West 11.5 mph 17.3 mph N/A   Overcast
11:18 AM 39.0 °F 31.8 °F 32.5 °F 78% 29.77 in 10.0 mi West 11.5 mph 19.6 mph N/A   Overcast
11:36 AM 39.2 °F 31.6 °F 32.0 °F 75% 29.77 in 10.0 mi West 12.7 mph 20.7 mph N/A   Overcast
11:55 AM 39.6 °F 31.3 °F 32.0 °F 74% 29.78 in 10.0 mi West 15.0 mph 23.0 mph N/A   Overcast
11:56 AM 39.4 °F 30.7 °F 32.0 °F 75% 29.78 in 10.0 mi West 16.1 mph 23.0 mph N/A   Overcast
12:17 PM 39.7 °F 31.9 °F 32.0 °F 74% 29.78 in 10.0 mi West 13.8 mph 23.0 mph N/A   Overcast
12:35 PM 41.0 °F 33.9 °F 32.4 °F 71% 29.79 in 10.0 mi West 12.7 mph 19.6 mph N/A   Overcast
12:55 PM 40.5 °F 33.2 °F 32.0 °F 72% 29.79 in 10.0 mi West 12.7 mph 19.6 mph N/A   Overcast
12:56 PM 40.5 °F 32.8 °F 32.0 °F 72% 29.79 in 10.0 mi West 13.8 mph 19.6 mph N/A   Overcast
1:19 PM 40.1 °F 32.7 °F 32.0 °F 73% 29.79 in 10.0 mi West 12.7 mph 20.7 mph N/A   Overcast
1:35 PM 40.1 °F 32.0 °F 32.0 °F 73% 29.80 in 10.0 mi West 15.0 mph 20.7 mph N/A   Overcast
1:55 PM 40.3 °F 32.6 °F 32.0 °F 72% 29.80 in 10.0 mi West 13.8 mph 21.9 mph N/A   Overcast
2:17 PM 40.6 °F 33.4 °F 32.4 °F 72% 29.80 in 10.0 mi West 12.7 mph 20.7 mph N/A   Overcast
2:59 PM 41.0 °F 33.1 °F 32.0 °F 70% 29.81 in 10.0 mi West 15.0 mph 19.6 mph N/A   Overcast
3:04 PM - - - N/A% 29.81 in 10.0 mi West 12.7 mph 17.3 mph N/A   Overcast
3:15 PM 42.6 °F 35.2 °F 31.5 °F 65% 29.81 in 10.0 mi West 15.0 mph 20.7 mph N/A   Mostly Cloudy
3:16 PM 42.6 °F 35.9 °F 31.3 °F 64% 29.81 in 10.0 mi West 12.7 mph 20.7 mph N/A   Mostly Cloudy
3:38 PM 41.7 °F 34.4 °F 31.6 °F 67% 29.82 in 10.0 mi West 13.8 mph 19.6 mph N/A   Drizzle
3:55 PM 41.5 °F 34.6 °F 32.4 °F 70% 29.82 in 10.0 mi WNW 12.7 mph 17.3 mph N/A Rain Light Rain
4:23 PM - - - N/A% 29.83 in 10.0 mi West 6.9 mph - N/A   Overcast
4:37 PM 41.0 °F 34.3 °F 33.1 °F 73% 29.84 in 10.0 mi West 11.5 mph 16.1 mph N/A   Overcast
4:55 PM 41.0 °F 35.8 °F 33.3 °F 74% 29.85 in 10.0 mi West 8.1 mph - N/A   Overcast
5:15 PM 41.9 °F 36.3 °F 32.9 °F 70% 29.85 in 10.0 mi West 9.2 mph - N/A   Overcast
5:16 PM 41.9 °F 35.4 °F 32.9 °F 70% 29.85 in 10.0 mi West 11.5 mph - N/A   Overcast
5:38 PM 41.9 °F 35.9 °F 32.0 °F 68% 29.86 in 10.0 mi West 10.4 mph 18.4 mph N/A   Overcast
5:55 PM 41.5 °F 36.4 °F 32.0 °F 69% 29.86 in 10.0 mi West 8.1 mph 16.1 mph N/A   Overcast
5:56 PM 41.5 °F 35.9 °F 32.0 °F 69% 29.86 in 10.0 mi West 9.2 mph 16.1 mph N/A   Overcast
5:59 PM 41.0 °F 34.7 °F 32.0 °F 70% 29.86 in 10.0 mi West 10.4 mph - N/A   Overcast
6:15 PM 41.2 °F 35.0 °F 31.8 °F 69% 29.87 in 10.0 mi West 10.4 mph 16.1 mph N/A   Overcast
6:16 PM 41.0 °F 35.2 °F 32.0 °F 70% 29.87 in 10.0 mi West 9.2 mph 16.1 mph N/A   Overcast
6:59 PM 39.2 °F 33.6 °F 32.0 °F 75% 29.89 in 10.0 mi West 8.1 mph - N/A   Overcast
7:59 PM 37.4 °F 32.1 °F 33.8 °F 87% 29.91 in 7.0 mi West 6.9 mph 18.4 mph N/A   Drizzle
8:46 PM - - - N/A% 29.92 in 10.0 mi West 6.9 mph - N/A   Overcast
8:57 PM 38.3 °F 31.4 °F 33.8 °F 84% 29.93 in 10.0 mi West 10.4 mph 16.1 mph N/A   Overcast
9:15 PM 38.1 °F 31.7 °F 32.9 °F 81% 29.93 in 10.0 mi West 9.2 mph - N/A   Overcast
9:16 PM 38.1 °F 32.3 °F 32.9 °F 81% 29.93 in 10.0 mi West 8.1 mph - N/A   Overcast
9:35 PM 37.9 °F 32.7 °F 33.3 °F 83% 29.94 in 10.0 mi West 6.9 mph - N/A   Overcast
9:36 PM 37.9 °F 32.7 °F 33.3 °F 83% 29.94 in 10.0 mi West 6.9 mph - N/A   Overcast
9:58 PM 37.8 °F 33.3 °F 33.8 °F 86% 29.94 in 10.0 mi West 5.8 mph - N/A   Overcast
10:16 PM 37.4 °F 32.8 °F 33.8 °F 87% 29.94 in 10.0 mi West 5.8 mph - N/A   Overcast
10:35 PM 36.7 °F 32.9 °F 33.8 °F 89% 29.95 in 10.0 mi West 4.6 mph - N/A   Scattered Clouds
10:36 PM 36.5 °F 31.8 °F 33.8 °F 90% 29.95 in 10.0 mi West 5.8 mph - N/A   Scattered Clouds
11:18 PM 36.0 °F 32.1 °F 33.3 °F 90% 29.95 in 10.0 mi West 4.6 mph - N/A   Clear
11:35 PM 36.0 °F 31.1 °F 33.8 °F 92% 29.95 in 10.0 mi West 5.8 mph - N/A   Clear
11:55 PM 35.8 °F 33.0 °F 33.4 °F 91% 29.95 in 10.0 mi West 3.5 mph - N/A   Clear
11:56 PM 35.8 °F - 33.4 °F 91% 29.95 in 10.0 mi Calm Calm - N/A   Clear